TimeEDT,TemperatureF,Dew PointF,Humidity,Sea Level PressureIn,VisibilityMPH,Wind Direction,Wind SpeedMPH,Gust SpeedMPH,PrecipitationIn,Events,Conditions,WindDirDegrees,DateUTC
12:53 AM,52.0,51.1,97,29.95,10.0,ENE,6.9,-,N/A,,Clear,70,2012-10-04 04:53:00
1:53 AM,52.0,52.0,100,29.94,9.0,East,3.5,-,N/A,,Clear,100,2012-10-04 05:53:00
2:53 AM,52.0,48.9,89,29.94,10.0,Calm,Calm,-,N/A,,Clear,0,2012-10-04 06:53:00
3:53 AM,52.0,46.9,83,29.92,10.0,South,3.5,-,N/A,,Clear,190,2012-10-04 07:53:00
4:53 AM,51.1,46.9,86,29.91,10.0,South,5.8,-,N/A,,Clear,170,2012-10-04 08:53:00
5:53 AM,46.9,45.0,93,29.90,10.0,SSE,4.6,-,N/A,,Clear,160,2012-10-04 09:53:00
6:53 AM,46.9,45.0,93,29.89,10.0,SE,3.5,-,N/A,,Clear,140,2012-10-04 10:53:00
7:53 AM,46.0,45.0,96,29.89,10.0,ESE,4.6,-,N/A,,Clear,110,2012-10-04 11:53:00
8:53 AM,51.1,48.9,92,29.87,10.0,East,5.8,-,N/A,,Clear,90,2012-10-04 12:53:00
9:53 AM,55.9,53.1,90,29.84,10.0,East,8.1,-,0.01,,Clear,90,2012-10-04 13:53:00
10:53 AM,60.1,51.1,72,29.81,10.0,East,9.2,-,N/A,,Clear,100,2012-10-04 14:53:00
11:53 AM,64.9,51.1,61,29.78,10.0,ESE,9.2,-,N/A,,Clear,110,2012-10-04 15:53:00
12:53 PM,64.9,50.0,58,29.73,10.0,East,8.1,-,N/A,,Scattered Clouds,100,2012-10-04 16:53:00
1:50 PM,69.8,48.2,46,29.69,10.0,SSE,11.5,20.7,N/A,Thunderstorm,Thunderstorm,150,2012-10-04 17:50:00
1:53 PM,70.0,48.0,46,29.69,10.0,SSE,12.7,19.6,N/A,Thunderstorm,Thunderstorm,160,2012-10-04 17:53:00
2:05 PM,71.6,46.4,41,29.68,10.0,SSE,12.7,26.5,N/A,,Mostly Cloudy,160,2012-10-04 18:05:00
2:53 PM,59.0,48.9,69,29.72,10.0,WNW,26.5,32.2,N/A,,Mostly Cloudy,290,2012-10-04 18:53:00
3:04 PM,57.2,46.4,67,29.72,10.0,WNW,19.6,28.8,N/A,,Overcast,290,2012-10-04 19:04:00
3:53 PM,55.9,46.0,69,29.73,10.0,WNW,21.9,29.9,0.00,,Scattered Clouds,300,2012-10-04 19:53:00
4:53 PM,57.0,45.0,64,29.73,10.0,WNW,27.6,34.5,N/A,,Clear,290,2012-10-04 20:53:00
5:53 PM,53.6,41.0,62,29.76,10.0,West,25.3,32.2,N/A,,Clear,270,2012-10-04 21:53:00
6:53 PM,50.0,37.0,61,29.79,10.0,West,21.9,28.8,N/A,,Scattered Clouds,280,2012-10-04 22:53:00
7:53 PM,48.0,36.0,63,29.80,10.0,West,27.6,38.0,N/A,,Clear,270,2012-10-04 23:53:00
8:53 PM,48.0,34.0,58,29.80,10.0,West,23.0,27.6,N/A,,Overcast,260,2012-10-05 00:53:00
9:53 PM,46.0,33.1,61,29.82,10.0,West,23.0,46.0,N/A,,Overcast,260,2012-10-05 01:53:00
10:53 PM,45.0,30.9,58,29.82,10.0,West,19.6,33.4,N/A,,Overcast,260,2012-10-05 02:53:00
11:53 PM,43.0,33.1,68,29.82,10.0,West,25.3,35.7,0.00,Rain,Light Rain,260,2012-10-05 03:53:00